Wetbulb
68.83 73.38 72.61 72.25 72.30 71.93 71.48 71.54 70.57 71.02 70.72 71.64 72.22 71.59 70.63 69.66 68.40 67.32 66.87 67.34 68.11 68.65 69.17 68.81 68.31 67.72 67.68 67.02 67.29 66.91 66.00 64.42 64.02 63.18 65.08 66.37 67.23 68.29 68.74 70.05 69.26 67.95 67.47
67.85 71.07 73.18 72.70 72.90 72.20 72.00 71.88 73.01 71.46 71.75 71.97 71.99 71.35 70.57 69.52 68.92 68.49 68.49 69.61 69.15 68.99 69.21 68.67 68.67 68.51 66.82 66.75 67.27 67.02 65.39 62.47 61.81 60.48 62.82 64.10 65.71 67.09 67.55 67.90 67.27 67.09 66.11
66.78 71.37 73.12 72.99 72.37 72.57 72.65 72.54 71.50 72.09 72.12 71.99 71.22 70.68 70.23 69.63 69.28 69.77 69.75 69.86 70.12 70.00 69.37 68.60 68.81 66.95 66.45 66.14 66.98 66.50 65.98 64.99 64.88 63.89 62.07 64.02 65.37 66.70 66.14 66.14 65.96 65.73 65.69
67.25 70.12 70.23 66.61 67.90 67.13 67.50 69.69 71.85 71.82 71.33 70.58 70.18 69.61 69.90 69.37 69.60 70.02 70.45 70.30 69.85 69.62 69.39 69.01 68.65 67.81 67.21 66.39 65.89 65.73 65.25 65.89 65.07 65.21 62.25 63.99 64.99 65.71 66.25 65.03 64.39 65.46 65.07
65.43 65.76 65.49 66.06 66.17 66.78 66.80 66.60 67.16 67.45 69.85 70.36 69.30 68.99 69.62 70.13 71.42 70.59 70.59 70.25 69.64 68.92 68.81 68.83 68.60 68.74 67.97 66.87 66.64 65.51 64.80 64.17 62.92 62.76 62.76 63.64 63.94 63.44 64.15 64.53 64.35 64.44 64.67
64.12 64.34 65.22 65.48 65.60 65.83 65.63 66.33 65.35 64.95 65.96 67.18 67.12 67.03 67.48 69.83 64.40 63.51 68.56 70.07 69.87 68.74 68.04 67.84 68.24 68.09 67.05 65.25 65.84 65.57 66.24 64.81 63.65 62.86 62.75 64.22 64.59 63.76 63.62 64.28 63.94 62.38 61.59
63.17 63.49 63.66 63.92 64.05 64.36 64.82 64.68 64.28 63.40 64.75 66.01 67.07 67.77 67.91 67.70 61.78 61.36 63.60 69.78 69.46 68.92 68.18 67.46 67.30 69.37 66.94 67.16 64.17 63.91 64.27 64.56 65.18 65.77 63.46 64.91 63.37 62.60 62.99 63.02 63.22 62.19 61.56
64.02 63.00 62.62 62.71 62.37 62.83 64.54 64.84 64.79 64.65 64.67 65.01 65.70 66.02 65.91 66.74 61.04 58.99 61.45 67.00 69.14 68.24 68.40 67.37 66.40 66.87 66.87 66.92 66.31 64.77 64.84 65.27 65.51 65.97 65.79 65.55 65.07 64.15 64.06 63.01 63.15 63.25 62.44
63.06 63.46 64.99 64.45 62.59 61.99 61.74 62.30 62.49 62.11 62.43 63.92 65.27 65.85 64.81 65.46 61.37 58.55 60.11 65.24 67.82 67.32 67.66 67.46 67.05 66.65 63.68 60.66 65.61 64.42 63.97 64.12 63.14 61.47 62.23 62.04 61.30 60.49 62.83 61.81 61.85 61.05 59.33
59.93 60.98 61.55 62.86 63.17 62.64 62.73 62.15 63.14 64.54 65.42 64.96 64.92 65.39 64.42 65.28 55.94 54.85 60.22 64.94 64.31 64.99 64.57 65.35 62.20 65.44 61.09 57.20 64.58 64.33 62.83 63.96 63.79 63.38 61.75 60.56 59.74 60.46 60.26 64.38 63.03 61.94 59.90
59.03 59.39 59.51 59.49 59.90 60.32 60.72 61.43 61.66 61.57 61.86 64.74 65.01 64.78 65.26 64.06 60.48 53.94 55.57 64.56 64.80 63.97 63.72 63.95 64.70 59.52 56.62 54.25 55.53 64.23 63.52 64.24 62.99 63.43 63.08 62.24 61.37 61.52 62.62 63.11 63.62 63.77 62.01
57.75 58.15 58.51 58.90 59.02 58.69 57.98 58.86 59.59 60.42 61.77 63.02 63.54 62.63 62.31 61.95 56.12 55.03 53.40 56.48 60.29 64.24 64.67 65.62 63.08 53.76 52.13 52.49 52.63 55.37 54.13 57.49 62.88 62.59 61.95 62.07 61.96 62.58 63.15 63.92 64.24 64.20 65.23
57.35 56.48 57.64 57.55 58.68 58.44 57.18 55.94 57.89 58.53 58.85 60.46 62.52 61.59 60.73 60.87 59.38 51.93 51.77 54.12 56.30 62.24 63.60 60.47 54.30 51.04 50.50 53.58 53.76 53.76 53.72 59.43 61.28 62.39 63.61 64.13 63.37 62.94 62.37 62.75 64.93 64.14 63.78
56.04 55.47 54.64 54.52 55.21 56.84 57.99 57.16 55.03 56.06 56.92 59.25 60.64 58.09 56.62 56.90 57.34 57.20 58.29 57.29 55.28 58.23 57.51 57.59 55.43 53.66 52.82 55.19 55.94 58.09 58.37 61.00 62.61 62.51 62.96 64.00 62.93 62.01 62.52 63.31 63.54 63.53 62.48
54.83 55.07 53.65 53.36 53.98 54.69 54.57 55.80 56.02 53.55 53.17 55.66 55.84 56.00 54.30 53.90 53.47 47.20 49.64 54.56 53.64 50.44 51.98 54.35 55.56 55.60 55.82 57.38 60.08 60.71 59.82 58.69 58.37 58.61 58.65 59.01 59.78 61.39 62.87 64.50 63.71 63.71 62.26
53.99 53.75 52.65 52.47 53.32 53.95 53.86 52.46 50.19 48.19 45.19 43.23 43.97 51.10 50.29 46.24 43.79 42.16 41.80 41.98 42.52 43.94 52.54 54.73 55.66 56.14 56.02 55.74 56.40 58.05 60.26 60.60 60.32 61.63 61.81 61.79 61.00 60.64 60.90 61.74 63.81 63.34 62.53
51.89 52.34 52.23 52.11 53.24 51.64 51.51 50.59 50.37 50.93 46.91 43.55 42.12 42.88 45.24 45.97 42.88 43.07 42.70 42.16 42.34 44.88 56.14 57.35 58.01 58.53 59.10 59.46 59.78 59.58 58.21 58.75 59.97 60.16 60.89 61.21 61.59 61.57 61.07 61.69 61.82 61.98 61.96
53.24 51.75 52.28 51.91 51.91 51.33 50.15 49.98 49.78 50.01 50.59 51.82 44.50 44.12 42.34 42.52 44.15 43.43 42.88 44.14 54.27 52.79 56.90 56.72 56.38 56.72 57.08 57.08 57.81 58.01 59.74 61.45 61.47 61.61 61.59 61.93 61.95 61.39 61.21 60.82 61.16 61.28 61.80
52.75 52.04 52.03 51.87 51.78 51.12 51.69 51.30 50.67 50.60 50.83 50.73 50.37 46.49 43.38 41.25 42.88 46.15 47.23 54.48 54.68 54.99 55.39 55.38 55.62 55.58 56.16 56.54 56.90 57.08 57.45 58.85 60.20 61.11 61.11 61.09 60.91 60.22 59.78 59.60 59.28 52.67 55.21
52.54 53.27 52.73 52.23 53.06 53.50 53.63 54.19 55.26 54.35 52.55 52.95 53.26 52.49 51.58 51.05 52.85 51.73 51.52 51.89 53.06 55.54 55.40 55.36 55.42 55.25 55.60 55.60 55.62 55.82 56.02 56.02 56.90 57.31 57.83 58.39 58.55 58.19 57.65 57.45 56.56 55.84 55.43
53.49 51.15 53.27 52.41 53.57 53.41 53.34 54.34 55.19 55.64 54.54 54.56 55.57 54.63 49.48 54.68 52.67 51.44 51.34 51.86 52.20 52.12 53.12 51.40 53.07 54.79 54.73 54.71 54.65 54.85 55.03 55.27 55.29 55.29 55.47 55.66 55.84 55.47 55.43 55.78 55.21 55.05 54.71
52.82 51.28 52.00 52.08 53.41 53.73 53.37 53.24 53.49 54.83 54.97 53.54 52.78 50.45 43.97 53.08 51.99 51.66 51.62 51.77 52.11 52.21 52.27 52.39 52.01 51.92 52.21 52.03 52.52 54.03 53.57 54.29 54.77 55.19 55.07 55.40 55.43 55.27 54.87 54.53 54.55 54.55 54.87
51.64 52.11 52.32 52.17 52.57 52.35 52.97 53.01 52.74 52.67 53.60 54.29 53.27 54.30 54.20 52.85 51.79 51.61 51.81 52.19 52.16 51.75 51.44 52.44 52.76 52.24 52.56 52.81 52.33 51.92 51.78 51.89 52.42 53.15 52.87 53.07 53.47 54.05 54.37 54.09 54.07 53.79 53.77
49.36 49.93 50.37 51.75 52.19 52.84 52.33 52.01 51.81 49.97 52.59 54.09 54.14 53.48 53.03 52.47 51.75 52.95 52.07 52.48 52.40 51.96 51.04 50.97 53.08 52.75 53.13 52.74 49.50 48.86 49.07 49.13 51.44 52.63 51.99 52.16 51.97 51.21 53.32 54.11 53.75 53.44 53.05
48.32 49.01 48.94 48.83 51.17 52.23 51.69 51.97 52.07 52.19 52.16 52.54 53.69 53.37 53.13 53.15 52.94 54.36 54.38 53.28 53.24 53.36 52.19 50.24 50.67 50.46 51.62 52.44 48.54 46.23 40.75 33.96 42.50 38.44 51.16 52.31 52.08 51.38 51.95 50.86 50.38 49.63 48.60
48.17 48.84 47.66 48.08 47.83 49.66 50.96 51.47 51.70 51.99 52.47 52.36 53.08 53.10 53.26 53.72 54.33 55.31 55.94 55.74 54.55 53.84 53.00 50.65 49.62 49.49 49.52 48.17 46.64 41.36 34.94 33.96 38.89 33.56 39.78 45.83 51.30 52.06 53.33 51.51 48.56 48.22 46.89
MSLP
1001.25 1002.02 1002.64 1003.08 1003.40 1003.87 1004.33 1005.04 1005.41 1005.81 1006.14 1006.94 1007.31 1007.66 1008.01 1008.49 1009.00 1009.49 1009.94 1010.28 1010.60 1010.87 1011.09 1011.33 1011.51 1011.70 1012.06 1012.40 1012.67 1012.75 1012.99 1013.46 1013.59 1013.13 1012.99 1012.70 1012.82 1012.79 1012.92 1012.74 1012.94 1013.54 1013.97
1001.52 1000.69 1001.10 1001.85 1002.26 1002.77 1003.37 1004.15 1005.00 1005.49 1005.88 1006.11 1006.71 1007.13 1007.52 1007.89 1008.25 1008.75 1009.15 1009.50 1009.93 1010.08 1010.27 1010.64 1010.78 1011.10 1011.48 1011.69 1012.13 1012.42 1012.61 1012.84 1013.26 1013.22 1012.89 1012.88 1012.88 1012.75 1012.84 1013.03 1013.04 1013.31 1013.89
1002.00 1000.86 1000.03 1001.13 1001.58 1002.48 1002.81 1003.63 1004.58 1004.81 1005.04 1005.37 1005.56 1006.17 1006.56 1007.05 1007.60 1008.00 1008.36 1008.89 1009.15 1009.35 1009.57 1009.99 1010.22 1010.62 1010.87 1011.22 1011.34 1011.88 1012.42 1012.64 1012.86 1013.08 1013.19 1012.92 1012.78 1012.85 1012.83 1012.94 1013.16 1013.58 1013.85
1001.24 1001.05 1000.15 1000.58 1001.39 1002.84 1003.27 1003.79 1004.18 1004.43 1004.66 1004.95 1005.39 1005.52 1005.80 1006.19 1006.83 1007.58 1007.82 1008.21 1008.59 1008.91 1009.09 1009.27 1009.69 1010.07 1010.23 1010.39 1010.80 1011.03 1011.87 1012.40 1012.47 1012.54 1012.92 1013.26 1013.22 1013.02 1012.94 1013.13 1013.39 1013.53 1013.69
1001.35 1001.44 1001.09 1000.85 1002.12 1003.45 1003.57 1003.88 1005.12 1005.66 1004.80 1004.43 1004.97 1005.10 1005.32 1005.67 1005.93 1006.61 1007.34 1007.88 1008.21 1008.39 1008.71 1008.83 1008.96 1009.63 1009.85 1010.10 1010.34 1010.83 1011.22 1011.83 1012.30 1012.41 1012.63 1012.80 1013.18 1013.39 1013.20 1013.22 1013.48 1013.68 1013.78
1001.39 1001.28 1002.04 1001.40 1003.08 1004.00 1003.98 1003.71 1003.39 1005.08 1005.01 1005.50 1004.23 1004.72 1005.12 1005.49 1006.07 1006.09 1006.01 1006.96 1007.64 1007.96 1008.23 1008.44 1008.60 1008.80 1009.70 1009.81 1009.93 1010.04 1010.59 1011.17 1011.71 1012.07 1012.06 1012.24 1012.44 1012.75 1013.01 1013.10 1013.42 1013.73 1013.75
1002.65 1001.32 1001.43 1001.97 1005.44 1003.52 1003.45 1004.27 1003.26 1004.87 1004.53 1004.03 1004.26 1004.70 1004.28 1004.95 1005.94 1004.76 1004.86 1005.85 1006.85 1007.36 1007.64 1008.02 1008.39 1008.36 1008.99 1009.38 1009.43 1009.73 1010.07 1010.36 1010.71 1010.96 1011.44 1011.41 1011.65 1011.78 1012.33 1012.77 1012.88 1013.13 1013.21
1002.15 1001.31 1001.40 1003.93 1005.25 1005.22 1004.24 1004.90 1004.82 1005.17 1005.45 1004.45 1004.48 1004.52 1004.75 1004.67 1005.68 1005.17 1004.89 1005.18 1006.11 1006.75 1007.00 1007.18 1007.69 1008.26 1008.37 1008.84 1009.11 1009.32 1009.44 1009.97 1009.99 1010.43 1010.44 1010.45 1010.43 1010.74 1011.27 1011.64 1012.25 1012.47 1012.70
1003.43 1003.43 1003.75 1004.44 1004.41 1004.20 1004.64 1005.19 1005.34 1005.26 1005.17 1004.31 1003.85 1004.10 1004.06 1004.39 1004.88 1004.79 1005.63 1004.48 1005.50 1006.34 1006.65 1006.54 1006.78 1007.58 1007.87 1008.27 1008.87 1009.14 1008.97 1009.26 1009.19 1009.45 1009.51 1009.77 1009.79 1009.93 1010.51 1011.57 1012.06 1012.55 1012.73
1004.81 1004.52 1004.83 1004.80 1005.09 1004.87 1005.00 1005.27 1005.08 1004.99 1004.70 1004.45 1003.99 1003.10 1003.40 1003.97 1004.10 1004.45 1004.50 1004.69 1006.00 1005.90 1006.57 1006.49 1006.71 1007.14 1007.38 1007.73 1008.37 1008.50 1008.61 1008.64 1008.95 1009.29 1009.58 1009.65 1009.71 1009.99 1010.16 1010.40 1010.85 1011.51 1011.80
1005.68 1005.46 1005.16 1005.14 1005.18 1005.02 1005.25 1005.03 1004.54 1004.35 1004.03 1003.68 1003.59 1003.52 1003.52 1004.07 1004.56 1004.55 1005.14 1005.62 1005.82 1005.93 1006.40 1006.59 1006.90 1007.05 1007.28 1007.36 1007.71 1007.88 1007.87 1007.87 1008.24 1008.65 1008.99 1009.23 1009.34 1009.44 1009.53 1009.90 1010.02 1010.00 1010.50
1005.94 1005.59 1005.13 1004.72 1004.89 1004.96 1005.12 1004.99 1004.32 1003.81 1003.83 1003.99 1004.06 1004.14 1004.34 1004.81 1004.88 1004.98 1004.90 1005.52 1006.15 1005.83 1006.27 1006.34 1006.97 1007.14 1007.20 1007.45 1007.50 1007.33 1007.51 1007.77 1007.96 1008.38 1008.67 1008.75 1008.79 1008.76 1008.70 1008.89 1009.10 1009.14 1009.04
1006.08 1005.91 1005.70 1005.47 1005.40 1005.15 1005.18 1004.93 1004.65 1004.26 1004.32 1004.53 1004.82 1004.61 1004.80 1005.68 1005.98 1005.56 1005.63 1005.82 1005.88 1006.13 1006.54 1006.34 1006.86 1007.02 1007.06 1007.09 1007.72 1007.57 1007.62 1007.63 1007.73 1008.06 1008.15 1007.97 1007.80 1007.87 1008.26 1008.54 1008.77 1008.75 1008.83
1006.65 1006.47 1006.28 1006.00 1005.65 1005.69 1005.53 1005.22 1005.41 1005.50 1005.52 1005.41 1005.45 1005.25 1005.74 1006.34 1006.90 1006.74 1006.91 1006.56 1006.86 1006.54 1006.31 1006.42 1006.57 1006.67 1006.53 1006.69 1007.25 1007.17 1006.96 1007.29 1007.25 1007.14 1007.50 1007.41 1007.38 1007.65 1007.80 1007.92 1008.11 1008.02 1008.20
1006.79 1006.77 1006.72 1006.50 1006.29 1006.31 1006.32 1006.26 1005.88 1005.95 1006.25 1006.31 1006.00 1005.80 1006.46 1007.06 1007.15 1007.47 1007.24 1006.83 1006.69 1006.88 1007.04 1006.71 1006.59 1006.42 1006.11 1006.16 1006.45 1006.63 1006.46 1006.77 1007.02 1006.94 1006.99 1007.21 1007.24 1007.43 1007.35 1007.25 1007.26 1007.35 1007.10
1006.85 1006.86 1006.92 1006.48 1006.45 1006.33 1006.34 1006.70 1006.21 1005.95 1006.52 1006.42 1006.35 1006.09 1006.90 1007.47 1007.48 1007.80 1007.63 1007.38 1007.25 1007.06 1007.44 1007.36 1007.05 1006.86 1006.63 1006.62 1006.36 1005.93 1006.03 1006.13 1006.31 1006.47 1006.32 1006.55 1006.68 1006.75 1006.82 1006.69 1006.79 1006.56 1006.29
1007.16 1006.88 1006.54 1006.46 1006.79 1006.75 1006.56 1006.96 1006.79 1006.18 1005.98 1006.55 1006.83 1006.60 1006.63 1007.59 1007.89 1007.77 1007.68 1007.69 1007.67 1007.62 1007.48 1007.30 1007.24 1007.07 1006.79 1006.42 1005.93 1005.78 1005.67 1005.68 1005.87 1005.82 1005.91 1005.73 1005.97 1006.12 1006.49 1006.41 1006.28 1005.87 1005.54
1006.89 1007.02 1006.83 1006.51 1006.69 1006.89 1006.90 1006.70 1006.62 1006.68 1006.49 1006.58 1006.75 1007.21 1007.58 1008.35 1008.22 1008.17 1008.01 1007.95 1008.14 1008.09 1007.81 1007.52 1007.18 1006.89 1006.62 1006.52 1006.35 1006.17 1005.84 1005.43 1005.39 1005.40 1005.48 1005.45 1005.45 1005.44 1005.79 1005.69 1005.73 1005.30 1004.94
1007.04 1006.77 1006.84 1006.57 1006.77 1006.85 1006.48 1006.51 1006.34 1006.32 1006.48 1006.70 1007.07 1007.55 1007.84 1008.17 1007.87 1007.65 1008.01 1008.09 1008.10 1007.83 1007.81 1007.61 1007.28 1007.11 1006.87 1006.51 1006.25 1006.07 1005.69 1005.52 1005.42 1005.27 1005.13 1005.11 1005.07 1005.26 1005.21 1005.17 1005.07 1005.05 1005.12
1007.04 1006.65 1006.82 1006.61 1006.77 1006.92 1006.53 1006.17 1006.46 1006.38 1006.41 1006.52 1006.91 1007.25 1007.71 1007.95 1007.81 1007.68 1007.92 1008.06 1007.84 1007.62 1007.66 1007.48 1006.97 1006.69 1006.58 1006.38 1006.18 1005.97 1005.56 1005.54 1005.45 1005.39 1005.19 1005.31 1005.18 1005.11 1005.11 1005.09 1004.96 1004.89 1004.92
1006.82 1006.85 1006.76 1006.67 1006.89 1006.86 1006.60 1006.44 1006.32 1006.57 1006.67 1006.65 1006.69 1007.07 1007.17 1007.40 1007.71 1007.74 1008.01 1007.91 1007.66 1007.48 1007.38 1007.34 1007.17 1007.01 1006.81 1006.70 1006.66 1006.60 1006.37 1006.15 1005.93 1005.62 1005.63 1005.55 1005.42 1005.22 1005.16 1005.19 1005.07 1004.99 1005.29
1006.94 1006.99 1006.94 1006.84 1007.02 1006.94 1006.90 1006.69 1006.70 1006.63 1006.73 1006.85 1006.93 1007.11 1007.21 1007.32 1007.70 1007.97 1007.83 1007.41 1007.27 1007.25 1007.04 1006.92 1007.21 1007.13 1007.13 1007.06 1006.98 1006.74 1006.65 1006.44 1006.17 1006.09 1005.99 1005.99 1005.73 1005.50 1005.71 1005.51 1005.50 1005.49 1005.44
1006.70 1006.90 1006.90 1006.96 1007.12 1007.00 1006.84 1006.98 1007.02 1007.08 1006.95 1006.80 1006.81 1007.01 1007.10 1007.23 1007.40 1007.53 1007.62 1007.55 1007.47 1007.26 1007.19 1007.05 1006.96 1006.77 1006.71 1006.50 1006.65 1006.65 1006.31 1006.43 1006.39 1006.32 1006.31 1006.11 1006.12 1006.19 1006.03 1006.07 1005.99 1005.87 1006.11
1006.84 1006.88 1006.81 1006.68 1006.78 1006.80 1006.84 1007.04 1007.20 1007.13 1007.16 1007.22 1007.15 1007.25 1007.25 1007.19 1007.34 1007.36 1007.35 1007.26 1007.10 1006.83 1006.69 1006.66 1006.50 1006.43 1006.63 1006.69 1006.40 1006.17 1006.23 1006.27 1006.39 1006.57 1006.46 1006.61 1006.45 1006.29 1006.35 1006.44 1006.64 1006.49 1006.40
1006.54 1006.56 1006.49 1006.71 1006.95 1006.87 1006.85 1006.85 1006.80 1006.65 1006.55 1006.35 1006.29 1006.27 1006.24 1006.49 1006.66 1006.62 1006.50 1006.67 1006.82 1006.89 1006.92 1006.79 1006.58 1006.40 1006.18 1006.15 1006.19 1006.30 1006.38 1006.42 1006.24 1006.45 1006.47 1006.56 1006.29 1006.43 1006.73 1006.59 1006.76 1007.17 1007.12
1006.38 1006.41 1006.38 1006.50 1006.56 1006.61 1006.65 1006.58 1006.69 1006.50 1006.25 1006.10 1006.03 1006.01 1005.97 1006.05 1006.03 1006.22 1006.30 1006.39 1006.33 1006.36 1006.36 1006.21 1006.10 1006.08 1006.13 1006.17 1006.14 1006.13 1006.25 1006.16 1006.14 1006.25 1006.31 1006.45 1006.40 1006.39 1006.57 1006.70 1006.92 1007.21 1007.20
Wind_Speed
8 13 15 14 16 15 15 13 12 11 10 9 10 10 10 10 9 8 7 7 9 7 7 8 7 6 4 4 4 3 4 4 6 2 2 3 2 4 3 3 5 4 3
8 11 17 16 17 16 16 15 11 10 8 11 11 10 10 10 9 9 9 9 10 9 8 7 7 4 5 5 4 7 5 5 3 4 1 2 4 3 2 3 3 3 4
10 10 16 16 14 14 14 11 8 10 11 10 11 11 11 10 10 9 9 8 8 8 7 7 7 6 5 4 6 5 3 3 4 2 3 1 1 1 2 2 2 2 3
4 3 10 12 9 8 8 4 5 8 8 8 7 7 7 6 7 7 8 8 7 6 6 7 6 7 7 7 6 7 5 5 4 5 2 1 2 1 1 2 2 2 3
9 10 11 16 14 8 8 11 10 12 5 10 8 7 7 8 7 9 7 6 7 7 6 6 6 7 9 7 5 5 6 5 3 3 3 3 2 1 3 1 2 1 3
8 11 7 12 6 3 4 8 8 7 8 10 10 11 9 6 8 8 8 7 8 7 7 6 6 7 8 11 11 10 9 7 6 4 3 4 6 4 2 3 2 2 2
5 9 9 11 4 1 1 6 3 12 13 15 9 7 11 3 11 12 14 8 7 7 7 6 5 5 8 6 9 8 9 11 7 7 5 8 5 7 5 4 5 4 4
9 9 13 5 5 3 4 5 3 4 11 10 8 5 4 7 11 7 11 7 6 7 8 8 7 6 6 7 6 6 7 8 9 7 7 8 6 5 8 6 6 4 1
9 9 6 3 2 3 1 3 5 4 6 6 7 7 6 7 9 8 6 6 6 7 8 7 8 7 9 11 6 7 6 6 6 11 10 9 10 11 9 5 3 4 5
6 6 4 4 3 3 1 4 4 5 5 5 7 5 8 6 5 8 3 4 4 4 3 3 6 6 9 9 8 7 6 7 5 4 4 6 7 6 12 9 7 7 4
3 3 4 4 3 4 1 2 3 4 2 2 5 4 5 5 5 10 9 4 3 2 3 2 3 4 7 8 10 6 8 6 6 5 4 4 3 5 6 8 8 8 7
4 5 6 6 6 5 5 4 4 3 4 4 6 6 5 4 2 7 8 3 8 4 3 3 2 2 3 5 5 9 5 3 1 3 3 5 6 7 8 8 10 9 8
6 6 6 6 5 6 6 6 4 6 4 4 3 5 5 4 5 10 8 5 2 2 3 3 2 2 3 4 10 10 5 3 4 4 7 7 5 4 3 4 7 7 8
6 6 6 7 7 7 5 5 5 5 4 4 4 5 5 4 3 3 1 4 2 1 2 2 1 2 4 5 4 6 4 4 5 5 5 4 2 3 5 6 6 8 7
4 4 5 4 5 4 3 3 3 3 2 2 2 4 4 3 3 3 3 1 2 3 4 2 3 2 2 3 4 6 4 4 4 3 3 4 3 3 6 6 8 8 9
4 4 4 4 4 3 4 4 4 4 5 7 7 5 3 7 4 3 1 1 2 6 1 1 2 2 3 4 5 4 3 4 4 4 5 4 5 5 6 5 7 9 10
3 4 3 4 3 3 3 3 3 4 2 2 7 6 4 7 2 4 6 6 4 0 1 1 2 3 3 4 3 3 4 4 4 4 5 5 5 5 6 7 8 9 10
4 4 3 2 2 2 3 2 2 1 1 3 5 3 5 8 7 5 3 3 2 1 1 2 2 3 3 3 4 3 4 3 3 4 5 5 5 5 6 7 7 8 9
3 3 4 2 1 2 1 2 2 2 3 1 2 1 3 2 3 6 6 3 3 1 1 2 2 2 3 3 3 3 3 4 4 3 3 4 3 3 5 5 4 4 3
4 6 4 3 3 3 3 3 3 2 1 2 3 3 4 1 1 2 1 1 2 3 2 3 3 3 4 5 5 4 4 3 4 3 3 3 3 2 3 4 3 3 3
3 4 6 3 3 3 3 3 2 3 2 3 3 3 6 3 4 3 4 3 2 1 1 1 2 3 3 3 3 4 4 4 3 3 3 4 3 3 2 2 1 2 2
2 3 2 0 1 2 1 2 3 3 1 1 0 2 6 3 3 3 3 3 2 2 2 2 1 0 0 1 1 2 3 3 3 3 3 3 2 3 2 3 2 3 3
1 2 1 1 0 1 1 1 1 0 2 2 3 2 2 3 3 4 4 4 4 3 3 3 2 1 0 2 2 2 3 3 3 3 3 3 3 3 3 3 3 4 4
2 3 3 3 2 2 2 2 3 3 2 3 4 4 4 4 5 6 5 5 4 4 3 2 2 3 2 2 0 1 1 2 3 2 3 2 2 3 3 3 3 3 4
1 4 3 3 3 4 3 4 4 3 3 3 3 2 4 4 5 5 4 3 4 4 5 4 4 4 5 6 4 3 2 1 1 3 1 1 1 1 1 2 2 1 2
1 2 1 2 3 4 5 5 5 5 4 4 4 4 3 4 4 4 5 6 5 4 5 4 4 6 6 4 5 3 3 2 1 1 1 2 3 2 2 1 2 1 1
Wind_Direction
154 184 200 202 198 202 211 215 210 205 193 192 200 194 197 198 183 182 187 189 206 211 205 205 216 192 207 190 195 196 200 177 234 293 242 227 236 199 205 184 148 158 206
278 182 189 199 202 205 209 211 205 201 190 195 201 197 194 193 181 186 191 195 202 206 213 200 214 183 204 191 196 218 193 176 169 246 277 278 227 234 213 167 155 148 192
269 234 182 194 201 213 212 206 193 186 200 199 190 193 190 185 183 191 191 201 203 210 204 203 214 188 200 192 192 188 192 174 197 200 275 320 319 12 80 108 136 157 198
251 295 119 90 99 75 62 64 175 190 191 188 189 193 179 175 185 195 192 195 200 208 205 200 205 203 205 191 187 180 174 202 186 214 226 284 269 253 156 163 175 186 198
104 97 102 100 97 93 83 76 18 340 255 166 163 159 160 171 178 180 194 206 204 205 210 212 207 218 211 195 174 192 173 182 190 193 183 169 229 256 235 148 209 212 238
78 96 110 71 49 128 156 128 147 308 327 254 169 173 161 145 150 180 173 186 209 206 209 214 216 189 218 208 200 178 181 180 202 195 200 215 222 212 215 225 191 179 271
49 64 74 81 297 1 140 224 217 244 265 260 212 215 171 149 269 176 172 189 206 208 201 203 211 201 200 209 215 198 200 203 192 187 204 208 206 195 170 193 196 193 218
17 33 54 86 137 166 157 178 181 230 233 242 247 223 228 195 221 225 174 180 215 212 198 195 189 214 205 201 206 199 204 209 212 213 204 219 208 177 186 184 201 210 192
39 40 47 59 37 52 116 207 218 210 249 233 224 229 205 220 215 187 217 143 193 215 218 194 181 202 215 197 191 217 221 235 215 214 213 217 201 187 167 127 160 178 239
24 36 52 82 113 127 208 230 232 210 220 243 248 244 224 202 143 127 121 98 218 218 225 232 210 216 221 197 201 206 214 237 203 193 227 247 232 189 176 190 168 204 192
23 47 53 54 67 55 13 274 255 244 3 25 81 56 69 91 142 151 164 167 178 202 205 246 256 239 236 216 206 195 207 209 213 211 228 243 214 196 191 206 201 189 195
32 28 23 34 27 29 24 347 8 51 100 72 95 84 61 37 52 179 160 178 183 158 192 156 155 78 73 19 189 224 236 218 208 216 216 224 217 218 215 209 214 217 219
38 21 12 31 31 23 25 10 18 31 55 78 64 72 72 60 57 80 93 107 178 199 189 157 179 15 325 324 271 258 238 188 198 217 235 240 228 242 195 202 225 223 232
55 37 15 17 15 17 7 39 30 28 40 57 100 94 77 61 61 64 79 80 323 145 152 187 173 241 238 238 294 255 206 219 213 211 236 246 199 188 206 213 220 219 219
54 34 34 15 26 16 18 349 69 67 51 84 61 90 101 68 57 35 19 49 65 40 347 356 331 309 337 281 233 240 215 204 214 214 212 239 241 239 245 226 231 228 226
37 19 2 10 11 44 39 357 53 73 79 77 62 110 68 67 83 9 36 106 135 144 79 327 324 309 248 239 231 240 232 223 217 220 213 219 238 246 256 252 246 235 241
31 354 1 35 26 353 355 343 343 338 359 91 85 89 137 143 89 55 52 78 86 9 134 249 256 254 273 272 243 227 241 231 231 216 230 217 222 234 244 255 253 248 253
0 342 355 338 300 280 254 249 216 192 267 299 110 94 130 156 129 83 61 160 29 298 333 347 352 352 354 330 335 322 318 270 231 232 229 237 228 229 239 244 248 256 260
358 351 346 6 340 288 336 278 242 250 246 224 105 60 114 130 76 57 47 69 49 47 17 352 350 332 318 316 311 292 294 288 288 262 231 245 248 239 245 248 256 271 277
334 355 15 42 28 345 9 60 25 38 44 126 155 152 154 158 127 71 37 280 48 38 15 9 5 3 2 358 352 348 354 357 357 346 334 310 290 246 251 259 234 214 207
348 339 346 19 31 352 1 22 40 57 55 114 120 137 178 159 176 178 202 208 194 157 92 80 32 27 15 12 0 356 1 8 8 12 19 337 358 325 343 300 204 173 130
317 314 311 17 43 51 63 43 33 26 342 278 213 91 157 125 165 196 229 240 250 247 229 175 189 168 304 350 353 20 30 23 15 7 14 10 25 44 32 63 66 68 95
287 324 308 331 289 231 93 75 74 340 312 272 229 171 170 175 195 206 219 221 226 241 240 216 194 175 56 63 51 54 58 28 358 359 12 27 35 28 70 78 79 77 59
276 294 293 288 274 255 244 219 207 213 216 181 185 202 206 199 206 217 217 228 237 249 243 240 219 210 234 219 315 2 14 6 341 1 38 33 40 32 59 69 62 101 109
244 316 262 275 259 233 262 266 275 281 288 291 282 252 215 197 213 223 227 231 248 234 236 228 227 230 216 206 209 214 201 196 58 339 328 340 92 105 107 90 72 75 91
242 292 355 232 242 249 245 233 235 241 249 251 268 270 241 220 225 226 213 210 225 245 243 226 238 226 228 235 241 227 223 256 292 0 314 245 219 221 213 214 205 183 149